Location: Riverside Cemetery
(38.3047°N, 99.7773°W)
Time: 07:18:32
(UTC+00:00)

Cosmos 1484 Rocket - Pass Details

Date: 19 September 2020
Orbit: 507 x 558 km, 97.4° (Epoch: 22 October)

Event Time Altitude Azimuth Distance (km) Brightness Sun altitude
Rises 11:48:52 0° 2° (N) 2,733 6.5 -7.8°
Reaches altitude 10° 11:51:06 10° 354° (N) 1,840 5.5 -7.4°
Maximum altitude 11:54:46 36° 287° (WNW) 895 3.5 -6.7°
Drops below altitude 10° 11:58:25 10° 221° (SW) 1,839 5.1 -6.0°
Sets 12:00:40 0° 212° (SSW) 2,730 6.0 -5.5°
